North Platte, NE

8:16 AM CDT on March 26, 2017 (GMT -0500)
North Platte Regional-Bird

Weather History for KLBF - May, 2014

Change the Weather History Date:

Thursday, May 15, 2014

  Actual Average Record
Temperature  
Mean Temperature 46 °F 58 °F  
Max Temperature 62 °F 71 °F 95 °F (1931)
Min Temperature 30 °F 44 °F 23 °F (1907)
Degree Days  
Heating Degree Days 19 8  
Month to date heating degree days 222 151  
Since 1 July heating degree days 6789 6541  
Cooling Degree Days 0 1  
Month to date cooling degree days 0 5  
Year to date cooling degree days 2 8  
Moisture  
Dew Point 27 °F    
Average Humidity 56    
Maximum Humidity 89    
Minimum Humidity 23    
Precipitation  
Precipitation 0.00 in 0.11 in 1.63 in (1951)
Month to date precipitation 0.86 1.44  
Year to date precipitation 3.34 5.60  
Snow  
Snow 0.00 in 0.00 in T in (2015)
Month to date snowfall T 0.0  
Since 1 July snowfall 29.8 28.5  
Snow Depth 0.00 in    
Sea Level Pressure  
Sea Level Pressure 30.21 in    
Wind  
Wind Speed 8 mph (NNW)    
Max Wind Speed 21 mph    
Max Gust Speed 31 mph    
Visibility 10 miles    
Events      
T = Trace of Precipitation, MM = Missing Value Source: NWS Daily Summary

Daily Weather History Graph

Daily Weather History Graph

Search for Another Location

Airport or City:

Trip Planner

Search our weather history database for the weather conditions in past years. The results will help you decide how hot, cold, wet, or windy it might be!

Date:

Astronomy

May. 15, 2014 Rise Set
Actual Time 6:24 AM CDT 8:54 PM CDT
Civil Twilight 5:53 AM CDT 9:25 PM CDT
Nautical Twilight 5:14 AM CDT 10:04 PM CDT
Astronomical Twilight 4:30 AM CDT 10:48 PM CDT
Moon 10:04 PM CDT (5/15) 7:13 AM CDT (5/15)
Length of Visible Light 15h 32m
Length of Day
14h 29m
Full, 99% of the Moon is Illuminated
May 15
Full
May 21
Last Quarter
May 28
New
Jun 5
First Quarter
Jun 12
Full

Hourly Weather History & Observations

Time (CDT) Temp. Windchill Dew Point Humidity Pressure Visibility Wind Dir Wind Speed Gust Speed Precip Events Conditions
12:53 AM 37.0 °F 31.6 °F 28.9 °F 73% 30.28 in 10.0 mi NE 6.9 mph - N/A   Partly Cloudy
1:53 AM 39.9 °F - 27.0 °F 60% 30.28 in 10.0 mi Calm Calm - N/A   Overcast
2:53 AM 37.9 °F - 30.9 °F 76% 30.27 in 10.0 mi Calm Calm - N/A   Overcast
3:53 AM 35.1 °F 32.2 °F 30.0 °F 82% 30.27 in 10.0 mi NW 3.5 mph - N/A   Overcast
4:53 AM 34.0 °F 31.0 °F 30.0 °F 85% 30.27 in 10.0 mi NNW 3.5 mph - N/A   Overcast
5:53 AM 34.0 °F 29.8 °F 28.9 °F 82% 30.26 in 10.0 mi West 4.6 mph - N/A   Mostly Cloudy
6:53 AM 32.0 °F 28.7 °F 28.0 °F 85% 30.27 in 10.0 mi WNW 3.5 mph - N/A   Scattered Clouds
7:53 AM 39.0 °F 36.8 °F 33.1 °F 79% 30.26 in 10.0 mi NW 3.5 mph - N/A   Scattered Clouds
9:53 AM 50.0 °F - 28.9 °F 44% 30.25 in 10.0 mi West 8.1 mph - N/A   Clear
10:53 AM 53.1 °F - 28.9 °F 40% 30.23 in 10.0 mi WNW 9.2 mph 19.6 mph N/A   Partly Cloudy
11:53 AM 55.9 °F - 27.0 °F 33% 30.23 in 10.0 mi North 16.1 mph - N/A   Partly Cloudy
12:53 PM 57.0 °F - 26.1 °F 30% 30.22 in 10.0 mi NNW 15.0 mph 23.0 mph N/A   Scattered Clouds
2:53 PM 60.1 °F - 25.0 °F 26% 30.18 in 10.0 mi NNW 12.7 mph 27.6 mph N/A   Mostly Cloudy
3:53 PM 57.9 °F - 24.1 °F 27% 30.18 in 10.0 mi North 8.1 mph 23.0 mph N/A   Partly Cloudy
4:53 PM 61.0 °F - 26.1 °F 26% 30.16 in 10.0 mi North 11.5 mph 20.7 mph N/A   Scattered Clouds
5:53 PM 60.1 °F - 23.0 °F 24% 30.16 in 10.0 mi North 12.7 mph 29.9 mph N/A   Clear
6:53 PM 59.0 °F - 23.0 °F 25% 30.15 in 10.0 mi North 15.0 mph 19.6 mph N/A   Clear
7:53 PM 57.0 °F - 23.0 °F 27% 30.13 in 10.0 mi North 11.5 mph - N/A   Clear
8:53 PM 50.0 °F - 24.1 °F 36% 30.14 in 10.0 mi North 5.8 mph - N/A   Clear
9:53 PM 42.1 °F 37.7 °F 25.0 °F 51% 30.15 in 10.0 mi ENE 6.9 mph - N/A   Clear
10:53 PM 37.9 °F 34.4 °F 27.0 °F 65% 30.16 in 10.0 mi East 4.6 mph - N/A   Clear
11:53 PM 39.0 °F 34.8 °F 28.0 °F 65% 30.16 in 10.0 mi East 5.8 mph - N/A   Clear